| time (UTC) | temp F | wind direction | speed MPH | gust MPH | rain 1hr in | rain 24hr in | rain mn in | humidity % | barometer mb |
| 20260903205156 | 64 | 251 | 2.0 | 5.0 | 0.00 | 0.00 | 0.00 | 72 | 1020.5 |
| 20260903204200 | 64 | 254 | 2.0 | 7.0 | 0.00 | 0.00 | 0.00 | 71 | 1020.5 |
| 20260903203205 | 64 | 260 | 3.0 | 7.0 | 0.00 | 0.00 | 0.00 | 71 | 1020.6 |
| 20260903202209 | 64 | 265 | 3.0 | 6.0 | 0.00 | 0.00 | 0.00 | 71 | 1020.7 |
| 20260903201213 | 64 | 266 | 4.0 | 7.0 | 0.00 | 0.00 | 0.00 | 71 | 1020.8 |
| 20260903200217 | 64 | 271 | 3.0 | 5.0 | 0.00 | 0.00 | 0.00 | 71 | 1020.7 |
| 20260903195221 | 64 | 266 | 4.0 | 7.0 | 0.00 | 0.00 | 0.00 | 70 | 1020.7 |
| 20260903194226 | 64 | 261 | 4.0 | 6.0 | 0.00 | 0.00 | 0.00 | 70 | 1020.6 |
| 20260903193230 | 64 | 248 | 2.0 | 4.0 | 0.00 | 0.00 | 0.00 | 69 | 1020.5 |
| 20260903192234 | 64 | 255 | 2.0 | 7.0 | 0.00 | 0.00 | 0.00 | 69 | 1020.6 |
| 20260903191238 | 65 | 257 | 2.0 | 5.0 | 0.00 | 0.00 | 0.00 | 68 | 1020.6 |
| 20260903184251 | 65 | 270 | 3.0 | 6.0 | 0.00 | 0.00 | 0.00 | 67 | 1020.8 |
| 20260903182300 | 65 | 281 | 6.0 | 11.0 | 0.00 | 0.00 | 0.00 | 67 | 1020.9 |
| 20260903181304 | 65 | 284 | 6.0 | 10.0 | 0.00 | 0.00 | 0.00 | 67 | 1020.6 |
| 20260903180308 | 65 | 274 | 5.0 | 10.0 | 0.00 | 0.00 | 0.00 | 66 | 1020.5 |
| 20260903175312 | 66 | 280 | 7.0 | 12.0 | 0.00 | 0.00 | 0.00 | 65 | 1020.4 |
| 20260903174317 | 67 | 275 | 5.0 | 9.0 | 0.00 | 0.00 | 0.00 | 62 | 1020.4 |
| 20260903173321 | 67 | 274 | 6.0 | 14.0 | 0.00 | 0.00 | 0.00 | 61 | 1020.3 |
| 20260903172325 | 67 | 273 | 6.0 | 12.0 | 0.00 | 0.00 | 0.00 | 60 | 1020.3 |
| 20260903171329 | 68 | 280 | 9.0 | 13.0 | 0.00 | 0.00 | 0.00 | 59 | 1020.3 |
| 20260903170334 | 68 | 275 | 8.0 | 11.0 | 0.00 | 0.00 | 0.00 | 59 | 1020.1 |
| 20260903165338 | 69 | 290 | 7.0 | 11.0 | 0.00 | 0.00 | 0.00 | 58 | 1020.2 |
| 20260903164342 | 69 | 287 | 9.0 | 14.0 | 0.00 | 0.00 | 0.00 | 56 | 1020.3 |
| 20260903163346 | 70 | 276 | 10.0 | 15.0 | 0.00 | 0.00 | 0.00 | 55 | 1020.1 |
| 20260903162351 | 70 | 280 | 10.0 | 16.0 | 0.00 | 0.00 | 0.00 | 53 | 1019.8 |
| 20260903161355 | 71 | 274 | 10.0 | 15.0 | 0.00 | 0.00 | 0.00 | 52 | 1019.8 |
| 20260903160359 | 71 | 277 | 9.0 | 19.0 | 0.00 | 0.00 | 0.00 | 51 | 1019.7 |
| 20260903155403 | 72 | 278 | 9.0 | 17.0 | 0.00 | 0.00 | 0.00 | 50 | 1019.6 |
| 20260903154408 | 72 | 276 | 6.0 | 17.0 | 0.00 | 0.00 | 0.00 | 49 | 1019.7 |
| 20260903153412 | 72 | 263 | 5.0 | 13.0 | 0.00 | 0.00 | 0.00 | 48 | 1019.7 |
| 20260903152416 | 73 | 267 | 4.0 | 8.0 | 0.00 | 0.00 | 0.00 | 49 | 1019.7 |
| 20260903151420 | 73 | 270 | 5.0 | 9.0 | 0.00 | 0.00 | 0.00 | 47 | 1019.7 |
| 20260903150425 | 74 | 261 | 5.0 | 11.0 | 0.00 | 0.00 | 0.00 | 46 | 1019.7 |
| 20260903145429 | 75 | 251 | 4.0 | 8.0 | 0.00 | 0.00 | 0.00 | 45 | 1019.8 |
| 20260903144433 | 76 | 254 | 4.0 | 7.0 | 0.00 | 0.00 | 0.00 | 43 | 1019.9 |
| 20260903143437 | 77 | 249 | 3.0 | 7.0 | 0.00 | 0.00 | 0.00 | 43 | 1019.9 |
| 20260903142442 | 76 | 248 | 3.0 | 6.0 | 0.00 | 0.00 | 0.00 | 43 | 1019.8 |
| 20260903141446 | 76 | 262 | 3.0 | 11.0 | 0.00 | 0.00 | 0.00 | 43 | 1020.0 |
| 20260903140450 | 76 | 270 | 4.0 | 7.0 | 0.00 | 0.00 | 0.00 | 43 | 1020.1 |
| 20260903135454 | 76 | 257 | 3.0 | 5.0 | 0.00 | 0.00 | 0.00 | 43 | 1020.1 |
| 20260903134458 | 75 | 255 | 4.0 | 8.0 | 0.00 | 0.00 | 0.00 | 42 | 1020.2 |
| 20260903133503 | 76 | 261 | 5.0 | 11.0 | 0.00 | 0.00 | 0.00 | 41 | 1020.3 |
| 20260903132507 | 77 | 262 | 4.0 | 11.0 | 0.00 | 0.00 | 0.00 | 41 | 1020.6 |
| 20260903131511 | 78 | 259 | 4.0 | 9.0 | 0.00 | 0.00 | 0.00 | 39 | 1020.4 |
| 20260903130515 | 80 | 263 | 6.0 | 14.0 | 0.00 | 0.00 | 0.00 | 37 | 1020.3 |
| 20260903125520 | 79 | 267 | 5.0 | 9.0 | 0.00 | 0.00 | 0.00 | 38 | 1020.4 |
| 20260903124524 | 80 | 278 | 5.0 | 11.0 | 0.00 | 0.00 | 0.00 | 37 | 1020.3 |
| 20260903123528 | 81 | 266 | 5.0 | 10.0 | 0.00 | 0.00 | 0.00 | 37 | 1020.4 |
| 20260903122532 | 82 | 272 | 6.0 | 12.0 | 0.00 | 0.00 | 0.00 | 37 | 1020.4 |
| 20260903121537 | 79 | 266 | 5.0 | 14.0 | 0.00 | 0.00 | 0.00 | 39 | 1020.5 |
| 20260903120541 | 78 | 277 | 7.0 | 13.0 | 0.00 | 0.00 | 0.00 | 38 | 1020.5 |
| 20260903115545 | 79 | 272 | 5.0 | 10.0 | 0.00 | 0.00 | 0.00 | 39 | 1020.6 |
| 20260903114549 | 79 | 269 | 4.0 | 8.0 | 0.00 | 0.00 | 0.00 | 39 | 1020.8 |
| 20260903113553 | 78 | 244 | 4.0 | 10.0 | 0.00 | 0.00 | 0.00 | 38 | 1020.8 |
| 20260903112558 | 77 | 237 | 5.0 | 11.0 | 0.00 | 0.00 | 0.00 | 39 | 1020.8 |
| 20260903111602 | 76 | 257 | 3.0 | 7.0 | 0.00 | 0.00 | 0.00 | 41 | 1020.9 |
| 20260903105610 | 77 | 273 | 4.0 | 8.0 | 0.00 | 0.00 | 0.00 | 39 | 1021.3 |
| 20260903104615 | 77 | 281 | 5.0 | 9.0 | 0.00 | 0.00 | 0.00 | 39 | 1021.6 |
| 20260903103619 | 77 | 281 | 5.0 | 9.0 | 0.00 | 0.00 | 0.00 | 41 | 1021.6 |
| 20260903102623 | 77 | 281 | 4.0 | 8.0 | 0.00 | 0.00 | 0.00 | 41 | 1021.7 |
| 20260903101627 | 78 | 275 | 5.0 | 9.0 | 0.00 | 0.00 | 0.00 | 40 | 1021.7 |
| 20260903100632 | 81 | 262 | 3.0 | 7.0 | 0.00 | 0.00 | 0.00 | 37 | 1021.7 |
| 20260903095636 | 82 | 275 | 3.0 | 6.0 | 0.00 | 0.00 | 0.00 | 39 | 1021.9 |
| 20260903094640 | 84 | 281 | 3.0 | 7.0 | 0.00 | 0.00 | 0.00 | 37 | 1022.0 |
| 20260903093644 | 82 | 270 | 4.0 | 6.0 | 0.00 | 0.00 | 0.00 | 40 | 1022.2 |
| 20260903092648 | 81 | 276 | 3.0 | 7.0 | 0.00 | 0.00 | 0.00 | 42 | 1022.1 |
| 20260903091653 | 80 | 274 | 3.0 | 7.0 | 0.00 | 0.00 | 0.00 | 42 | 1022.1 |
| 20260903090657 | 80 | 269 | 2.0 | 6.0 | 0.00 | 0.00 | 0.00 | 46 | 1022.2 |
| 20260903085701 | 79 | 281 | 4.0 | 9.0 | 0.00 | 0.00 | 0.00 | 46 | 1022.2 |
| 20260903084705 | 78 | 245 | 3.0 | 7.0 | 0.00 | 0.00 | 0.00 | 48 | 1022.2 |
| 20260903083710 | 76 | 233 | 4.0 | 11.0 | 0.00 | 0.00 | 0.00 | 49 | 1022.3 |
| 20260903082714 | 79 | 228 | 2.0 | 5.0 | 0.00 | 0.00 | 0.00 | 49 | 1022.4 |
| 20260903080722 | 78 | 268 | 2.0 | 5.0 | 0.00 | 0.00 | 0.00 | 52 | 1022.4 |
| 20260903075727 | 77 | 262 | 2.0 | 5.0 | 0.00 | 0.00 | 0.00 | 52 | 1022.4 |
| 20260903074731 | 78 | 286 | 2.0 | 4.0 | 0.00 | 0.00 | 0.00 | 55 | 1022.5 |
| 20260903073735 | 77 | 273 | 2.0 | 3.0 | 0.00 | 0.00 | 0.00 | 55 | 1022.6 |
| 20260903072739 | 75 | 290 | 2.0 | 3.0 | 0.00 | 0.00 | 0.00 | 58 | 1022.6 |
| 20260903071743 | 74 | 293 | 2.0 | 5.0 | 0.00 | 0.00 | 0.00 | 58 | 1022.7 |
| 20260903070747 | 73 | 302 | 3.0 | 5.0 | 0.00 | 0.00 | 0.00 | 61 | 1022.7 |
| 20260903065752 | 71 | 302 | 3.0 | 5.0 | 0.00 | 0.00 | 0.00 | 63 | 1022.6 |
| 20260903064756 | 70 | 295 | 3.0 | 5.0 | 0.00 | 0.00 | 0.00 | 64 | 1022.6 |
| 20260903063800 | 69 | 309 | 3.0 | 5.0 | 0.00 | 0.00 | 0.00 | 66 | 1022.6 |
| 20260903062805 | 67 | 308 | 4.0 | 6.0 | 0.00 | 0.00 | 0.00 | 68 | 1022.6 |
| 20260903061809 | 66 | 313 | 4.0 | 6.0 | 0.00 | 0.00 | 0.00 | 69 | 1022.5 |
| 20260903060813 | 65 | 311 | 5.0 | 6.0 | 0.00 | 0.00 | 0.00 | 71 | 1022.4 |
| 20260903055817 | 63 | 312 | 5.0 | 7.0 | 0.00 | 0.00 | 0.00 | 74 | 1022.4 |
| 20260903054821 | 61 | 314 | 5.0 | 7.0 | 0.00 | 0.00 | 0.00 | 76 | 1022.4 |
| 20260903053826 | 57 | 309 | 5.0 | 6.0 | 0.00 | 0.00 | 0.00 | 80 | 1022.4 |
| 20260903052830 | 57 | 318 | 4.0 | 6.0 | 0.00 | 0.00 | 0.00 | 80 | 1022.4 |
| 20260903051834 | 57 | 312 | 4.0 | 6.0 | 0.00 | 0.00 | 0.00 | 79 | 1022.4 |
| 20260903050838 | 57 | 309 | 4.0 | 6.0 | 0.00 | 0.00 | 0.00 | 79 | 1022.3 |
| 20260903045843 | 57 | 316 | 3.0 | 5.0 | 0.00 | 0.00 | 0.00 | 79 | 1022.1 |
| 20260903044847 | 57 | 291 | 1.0 | 4.0 | 0.00 | 0.00 | 0.00 | 79 | 1022.3 |
| 20260903043851 | 57 | 289 | 0.0 | 2.0 | 0.00 | 0.00 | 0.00 | 79 | 1022.3 |
| 20260903042855 | 57 | 255 | 0.0 | 1.0 | 0.00 | 0.00 | 0.00 | 79 | 1022.2 |
| 20260903041900 | 57 | 264 | 1.0 | 2.0 | 0.00 | 0.00 | 0.00 | 79 | 1022.3 |
| 20260903040904 | 57 | 319 | 1.0 | 3.0 | 0.00 | 0.00 | 0.00 | 79 | 1022.1 |
| 20260903035908 | 56 | 0 | 0.0 | 1.0 | 0.00 | 0.00 | 0.00 | 80 | 1022.1 |
| 20260903034913 | 56 | 202 | 0.0 | 1.0 | 0.00 | 0.00 | 0.00 | 82 | 1022.0 |
| 20260903033917 | 57 | 97 | 0.0 | 1.0 | 0.00 | 0.00 | 0.00 | 80 | 1022.0 |
| 20260903032921 | 57 | 219 | 0.0 | 2.0 | 0.00 | 0.00 | 0.00 | 80 | 1022.0 |
| 20260903031925 | 57 | 209 | 0.0 | 1.0 | 0.00 | 0.00 | 0.00 | 80 | 1022.1 |
| 20260903030929 | 57 | 256 | 0.0 | 2.0 | 0.00 | 0.00 | 0.00 | 79 | 1022.1 |
| 20260903025934 | 57 | 222 | 0.0 | 0.0 | 0.00 | 0.00 | 0.00 | 79 | 1022.1 |
| 20260903024938 | 57 | 218 | 0.0 | 0.0 | 0.00 | 0.00 | 0.00 | 82 | 1022.1 |
| 20260903023942 | 56 | 228 | 0.0 | 0.0 | 0.00 | 0.00 | 0.00 | 78 | 1022.1 |
| 20260903022946 | 56 | 274 | 0.0 | 0.0 | 0.00 | 0.00 | 0.00 | 77 | 1022.1 |
| 20260903021951 | 56 | 315 | 0.0 | 0.0 | 0.00 | 0.00 | 0.00 | 78 | 1022.0 |
| 20260903020955 | 56 | 300 | 0.0 | 0.0 | 0.00 | 0.00 | 0.00 | 79 | 1022.0 |
| 20260903015959 | 56 | 352 | 0.0 | 2.0 | 0.00 | 0.00 | 0.00 | 79 | 1022.0 |
| 20260903015003 | 56 | 181 | 0.0 | 1.0 | 0.00 | 0.00 | 0.00 | 80 | 1021.9 |
| 20260903014008 | 56 | 183 | 0.0 | 0.0 | 0.00 | 0.00 | 0.00 | 80 | 1021.8 |
| 20260903013012 | 57 | 225 | 0.0 | 0.0 | 0.00 | 0.00 | 0.00 | 80 | 1021.8 |
| 20260903012016 | 57 | 253 | 0.0 | 0.0 | 0.00 | 0.00 | 0.00 | 78 | 1021.9 |
| 20260903011020 | 58 | 286 | 0.0 | 2.0 | 0.00 | 0.00 | 0.00 | 77 | 1021.9 |
| 20260903010025 | 58 | 350 | 0.0 | 1.0 | 0.00 | 0.00 | 0.00 | 79 | 1022.0 |
| 20260903005029 | 58 | 58 | 1.0 | 2.0 | 0.00 | 0.00 | 0.00 | 77 | 1022.0 |
| 20260903004033 | 58 | 35 | 1.0 | 2.0 | 0.00 | 0.00 | 0.00 | 80 | 1022.0 |
| 20260903003037 | 58 | 2 | 1.0 | 3.0 | 0.00 | 0.00 | 0.00 | 79 | 1022.0 |
| 20260903002042 | 58 | 315 | 4.0 | 6.0 | 0.00 | 0.00 | 0.00 | 77 | 1021.9 |
| 20260903001046 | 57 | 313 | 1.0 | 5.0 | 0.00 | 0.00 | 0.00 | 76 | 1021.8 |
| 20260903000050 | 58 | 204 | 0.0 | 1.0 | 0.00 | 0.00 | 0.00 | 77 | 1021.8 |
| 20260902235054 | 58 | 355 | 1.0 | 3.0 | 0.00 | 0.00 | 0.00 | 77 | 1021.9 |
| 20260902234059 | 58 | 312 | 4.0 | 5.0 | 0.00 | 0.00 | 0.00 | 77 | 1021.9 |
| 20260902233103 | 58 | 306 | 3.0 | 5.0 | 0.00 | 0.00 | 0.00 | 75 | 1021.9 |
| 20260902232107 | 59 | 230 | 0.0 | 1.0 | 0.00 | 0.00 | 0.00 | 74 | 1021.9 |
| 20260902231111 | 59 | 270 | 0.0 | 2.0 | 0.00 | 0.00 | 0.00 | 74 | 1021.8 |
| 20260902230116 | 60 | 270 | 1.0 | 2.0 | 0.00 | 0.00 | 0.00 | 74 | 1021.8 |
| 20260902225120 | 60 | 198 | 1.0 | 2.0 | 0.00 | 0.00 | 0.00 | 74 | 1021.9 |
| 20260902224124 | 60 | 225 | 0.0 | 2.0 | 0.00 | 0.00 | 0.00 | 73 | 1021.9 |
| 20260902223128 | 60 | 224 | 0.0 | 0.0 | 0.00 | 0.00 | 0.00 | 73 | 1021.9 |
| 20260902222133 | 61 | 13 | 2.0 | 3.0 | 0.00 | 0.00 | 0.00 | 75 | 1021.8 |
| 20260902221137 | 61 | 305 | 1.0 | 2.0 | 0.00 | 0.00 | 0.00 | 73 | 1021.9 |
| 20260902220141 | 62 | 219 | 1.0 | 2.0 | 0.00 | 0.00 | 0.00 | 73 | 1021.9 |
| 20260902215145 | 62 | 184 | 2.0 | 4.0 | 0.00 | 0.00 | 0.00 | 73 | 1021.8 |
| 20260902214150 | 62 | 187 | 3.0 | 5.0 | 0.00 | 0.00 | 0.00 | 74 | 1021.9 |
| 20260902213154 | 62 | 219 | 2.0 | 4.0 | 0.00 | 0.00 | 0.00 | 74 | 1021.9 |
| 20260902212158 | 61 | 235 | 1.0 | 2.0 | 0.00 | 0.00 | 0.00 | 74 | 1021.8 |
| 20260902211203 | 60 | 300 | 2.0 | 3.0 | 0.00 | 0.00 | 0.00 | 72 | 1021.7 |
| 20260902210207 | 60 | 284 | 1.0 | 3.0 | 0.00 | 0.00 | 0.00 | 71 | 1021.7 |